Lapse_Rate
5.5 5.4 5.7 5.6 5.9 6.2 6.4 6.8 6.8 6.7 6.3 6.3 6.7 6.8 6.7 6.7 6.8 6.7 6.7 7.0 6.9 6.6
5.2 5.2 5.3 5.3 5.4 5.8 5.0 5.6 6.5 6.7 6.7 6.5 6.5 6.7 6.6 6.5 6.4 6.4 6.5 7.0 6.9 6.8
6.7 7.0 6.7 6.4 5.4 4.8 4.6 4.7 5.3 5.8 6.2 6.5 6.4 6.5 6.6 6.7 6.7 6.4 6.6 6.8 6.9 7.0
6.3 6.3 6.4 6.4 6.2 6.3 5.9 5.4 5.0 5.3 5.1 6.0 6.3 6.4 6.6 6.9 6.6 6.3 6.5 6.7 6.5 7.2
5.8 5.7 5.9 5.8 5.5 5.6 6.4 6.6 5.5 5.2 5.7 5.2 6.3 6.2 5.9 6.5 6.5 6.5 5.7 6.5 6.5 6.9
5.6 5.6 5.6 5.6 5.5 5.8 6.1 6.6 6.3 5.3 5.2 5.5 5.9 6.1 6.2 6.3 6.7 7.0 6.7 6.6 6.6 6.4
5.6 5.4 5.3 5.2 5.3 5.5 5.7 5.6 6.2 5.7 5.7 5.3 6.1 6.2 6.4 6.5 6.8 6.7 6.5 6.6 6.1 6.1
5.7 5.5 5.6 5.0 5.3 5.3 5.6 5.6 5.9 5.7 5.8 5.1 5.8 5.8 6.7 6.5 6.7 6.5 6.4 6.7 6.7 6.5
5.9 5.9 5.9 5.5 5.2 5.2 5.4 5.4 5.3 4.9 5.2 6.0 5.7 5.4 5.0 5.7 6.4 6.3 6.7 6.8 6.9 6.6
6.1 6.0 5.9 5.8 5.5 5.4 5.2 5.0 5.4 4.8 4.8 5.0 4.5 4.8 4.7 5.1 5.4 5.9 6.6 6.8 6.7 6.6
6.2 6.2 6.1 6.1 5.9 5.0 5.1 5.4 5.3 4.9 4.9 4.8 4.5 5.2 5.6 6.0 6.0 6.1 6.3 6.6 6.8 6.9
6.3 6.4 6.3 6.2 6.0 5.7 5.7 5.8 5.8 5.9 5.6 5.4 4.9 5.7 5.6 5.9 5.7 6.5 6.1 6.3 6.9 7.2
6.2 6.1 6.2 6.2 6.0 6.1 5.9 5.7 5.8 5.9 5.8 5.7 5.9 5.7 5.8 5.5 5.8 5.8 5.9 6.6 6.9 7.1
6.2 6.0 5.8 5.9 6.1 6.2 6.1 6.0 6.1 6.2 5.9 5.8 5.9 6.0 5.9 5.6 5.5 5.9 6.3 6.3 6.4 6.8
Wind_Speed
17 11 12 12 13 12 12 14 21 21 14 15 11 11 9 3 4 5 7 10 6 5
16 15 14 17 14 12 15 14 18 19 17 7 7 5 7 6 7 9 8 8 8 7
14 14 15 14 16 17 16 17 17 19 17 9 4 5 5 6 5 8 7 5 8 10
12 15 15 13 15 16 18 16 15 18 20 15 6 5 5 5 5 6 6 6 9 11
13 14 15 14 15 16 17 14 14 17 19 17 16 14 9 2 4 8 8 9 11 10
14 15 14 15 14 14 16 16 16 15 20 16 15 14 14 12 11 9 7 7 7 6
12 15 12 13 12 12 13 14 14 13 14 14 12 16 14 13 12 11 9 7 7 7
8 11 14 13 12 12 11 11 12 12 12 10 14 13 16 15 12 12 11 8 8 8
13 13 12 11 15 13 12 10 9 12 14 15 11 18 22 19 10 11 12 10 10 10
14 15 15 15 14 15 15 13 12 11 12 12 14 26 24 23 10 11 11 11 9 9
14 14 14 14 15 15 13 13 13 13 12 11 10 21 26 22 11 8 9 10 10 9
13 14 13 14 13 11 12 12 12 12 13 12 10 20 24 19 10 10 11 8 8 8
12 13 12 12 12 10 10 11 10 11 11 16 13 20 22 19 8 11 8 10 8 9
11 12 11 11 10 11 9 8 8 9 9 11 13 12 22 24 10 9 8 9 9 8
Wind_Direction
331 326 320 321 316 310 317 316 314 309 293 282 251 235 225 180 160 159 161 153 164 175
330 331 328 323 317 318 316 319 321 308 314 273 261 220 204 190 176 171 161 171 183 186
325 331 327 324 323 325 322 314 339 325 336 295 200 148 146 139 142 151 167 192 209 210
331 337 329 330 328 327 320 326 343 338 337 337 251 169 143 145 165 188 215 225 218 235
338 334 332 328 331 327 324 330 332 357 332 23 9 57 43 176 248 207 242 242 240 233
345 335 335 329 323 326 331 340 338 8 352 27 16 12 37 41 25 25 33 21 14 13
345 340 323 332 331 325 329 336 344 1 13 22 8 13 35 33 18 14 9 10 14 10
334 336 336 342 340 331 339 337 345 1 20 12 25 8 18 14 13 9 351 349 20 22
344 345 339 337 346 347 353 349 348 10 9 28 24 16 14 13 15 2 12 7 13 3
349 348 350 355 351 354 355 357 13 17 9 34 28 23 14 6 2 16 8 360 358 357
349 349 352 356 355 353 352 359 4 8 14 32 30 28 26 7 358 18 7 352 347 348
347 347 356 354 348 351 355 357 360 3 10 21 17 22 25 14 354 8 354 339 344 346
345 347 349 345 341 343 356 359 358 359 11 10 6 3 20 3 359 358 342 348 349 336
346 347 348 341 345 345 353 353 353 357 1 359 358 1 6 0 2 349 348 348 333 333